COSMOS 970 DEB, 10580

Orbit data source: Space-Track

COSMOS 970 DEB, 10580 is space debris in LEO originally from a launch on Wed, 21 Dec 1977 UTC launched from the Tyuratam Missile And Space Complex (TTMTR). Debris objects in space refer to the collection of defunct objects orbiting the Earth. Examples of debris include non-operational satellites, rocket bodies, and fragments generated from explosions, collisions, or faulty payload assembly.

Loading next visibility...
Identifier
10580, 1977-121X
Orbit
LEO
Country
Flag of CISCIS
Related business
Manufacturer
Unknown
Mission
Spacecraft
Bus & Motor
Unknown
Mass
Unknown
Launch date (UTC)
1977-12-21 (48 years ago)
Launch vehicle
Unknown
Launch site
Tyuratam Missile And Space Complex (TTMTR)
Object type
Payload
Rocket body
Debris
Shape & HBR
Unknown shape, 0.1 m
Radar Cross Section
Medium (>0.1 m² and <1 m²)

Expand to show TLE details & history
Last TLE update: 15 hours ago

TLE from 15 hours ago
0 COSMOS 970 DEB
1 10580U 77121X   26171.36267765  .00000119  00000-0  32480-3 0  9992
2 10580  65.6783 164.3359 0089864 266.8148 203.5741 13.44731759374721
Epoch: 2026-06-20T08:42Z
TLE epoch observation values (Epoch: 2026-06-20T08:42:15.348Z)
Latitude
59.02874°
Longitude
-103.33129°
Altitude
1,162.405 km
Speed
7.248 km/s
True Right ascension
19h 43m 14s
True Declination
58° 53' 06"
Sunlit
Object was in daylight at epoch
Visualization orbit readout
Latitude
Unknown
Longitude
Unknown
Altitude
Unknown
Speed
Unknown
Apparent Right ascension
Unknown
Apparent Declination
Unknown
Sunlit
N/A
Visualization observer readout
Local Sidereal Time
10:12:24
Azimuth
Unknown
Elevation
Unknown
Doppler factor
Unknown
Orbital elements
Apogee altitude
1,157.376 km
Perigee altitude
1,023.148 km
Semi-major axis
7,468.399 km
Eccentricity
0.00899
Inclination
65.6783°
RAAN
164.3359°
Arg. of periapsis
266.8148°
True anomaly
203.16646°
Mean anomaly
203.5741°
Eccentric anomaly
203.36986°
Mean motion
3.36281 °/min
Orbital period
107.05 mins
BSTAR
0.0003248
Loading maneuver chart data...
Computing Atmospheric mass density...
Loading historical data...
Loading historical data...
Loading historical data...
Loading historical data...
Loading historical data...
Loading historical data...
Loading historical data...

Documentation

Showing up to 5 results
|